Jefferson, NC

8:28 PM EST on December 05, 2019 (GMT -0500)
Ashe County

Weather History for KGEV - October, 2019

Change the Weather History Date:

Saturday, October 26, 2019

  Actual Average Record
Temperature  
Mean Temperature 55 °F -  
Max Temperature 58 °F 62 °F 75 °F (1984)
Min Temperature 52 °F 39 °F 23 °F (2013)
Degree Days  
Heating Degree Days 10    
Growing Degree Days 5 (Base 50)    
Moisture  
Dew Point 55 °F    
Average Humidity 98    
Maximum Humidity 100    
Minimum Humidity 90    
Precipitation  
Precipitation 0.44 in - - ()
Sea Level Pressure  
Sea Level Pressure 30.13 in    
Wind  
Wind Speed 2 mph ()    
Max Wind Speed 8 mph    
Max Gust Speed 17 mph    
Visibility 5.7 miles    
Events Fog , Rain    
Averages and records for this station are not official NWS values.
T = Trace of Precipitation, MM = Missing Value Source: Averaged Metar Reports

Daily Weather History Graph

Daily Weather History Graph

Search for Another Location

Airport or City:

Astronomy

Oct. 26, 2019 Rise Set
Actual Time 7:42 AM EDT 6:35 PM EDT
Civil Twilight 7:16 AM EDT 7:02 PM EDT
Nautical Twilight 6:46 AM EDT 7:32 PM EDT
Astronomical Twilight 6:16 AM EDT 8:02 PM EDT
Moon 5:42 AM EDT (10/26) 6:06 PM EDT (10/26)
Length of Visible Light 11h 45m
Length of Day
10h 53m
Waning Crescent, 3% of the Moon is Illuminated
Oct 26
Waning Crescent
Oct 27
New
Nov 4
First Quarter
Nov 12
Full
Nov 19
Last Quarter

Hourly Weather History & Observations

Time (EDT) Temp. Dew Point Humidity Pressure Visibility Wind Dir Wind Speed Gust Speed Precip Events Conditions
12:15 AM 52.7 °F 52.7 °F 100% 30.27 in 1.0 mi Calm Calm - N/A   Heavy Drizzle
12:35 AM 52.7 °F 52.7 °F 100% 30.26 in 1.8 mi Calm Calm - N/A   Drizzle
12:55 AM 52.7 °F 52.7 °F 100% 30.25 in 1.8 mi Calm Calm - N/A   Drizzle
1:15 AM 52.7 °F 52.7 °F 100% 30.25 in 2.0 mi Calm Calm - 0.01 in   Light Drizzle
1:35 AM 52.7 °F 52.7 °F 100% 30.24 in 0.2 mi Calm Calm - 0.01 in Rain Rain
1:55 AM 52.7 °F 52.7 °F 100% 30.24 in 0.2 mi Calm Calm - 0.01 in Fog Fog
2:15 AM 52.9 °F 52.9 °F 100% 30.24 in 4.0 mi Calm Calm - N/A   Overcast
2:35 AM 53.1 °F 53.1 °F 100% 30.23 in 7.0 mi Calm Calm - N/A   Overcast
2:55 AM 52.9 °F 52.9 °F 100% 30.22 in 3.0 mi Calm Calm - N/A   Overcast
3:15 AM 52.9 °F 52.9 °F 100% 30.21 in 2.0 mi Calm Calm - N/A   Overcast
3:35 AM 52.9 °F 52.9 °F 100% 30.22 in 4.0 mi Calm Calm - N/A Rain Rain
3:55 AM 52.9 °F 52.9 °F 100% 30.21 in 4.0 mi Calm Calm - N/A Rain Rain
4:15 AM 52.9 °F 52.9 °F 100% 30.20 in 3.0 mi SSE 3.5 mph - 0.01 in Rain Rain
4:35 AM 53.1 °F 53.1 °F 100% 30.20 in 3.0 mi Calm Calm - 0.01 in Rain Light Rain
4:55 AM 53.1 °F 53.1 °F 100% 30.19 in 1.2 mi Calm Calm - 0.01 in Rain Light Rain
5:15 AM 53.1 °F 53.1 °F 100% 30.20 in 4.0 mi SSE 3.5 mph - N/A   Light Drizzle
5:55 AM 53.1 °F 53.1 °F 100% 30.19 in 3.0 mi Calm Calm - N/A Rain Rain
6:15 AM 53.1 °F 53.1 °F 100% 30.19 in 2.0 mi Calm Calm - 0.01 in   Drizzle
6:35 AM 52.9 °F 52.9 °F 100% 30.19 in 2.0 mi Calm Calm - 0.01 in   Light Drizzle
7:15 AM 53.1 °F 53.1 °F 100% 30.18 in 3.0 mi Calm Calm - N/A   Overcast
7:35 AM 53.4 °F 53.4 °F 100% 30.18 in 7.0 mi Calm Calm - N/A   Overcast
7:55 AM 53.6 °F 53.6 °F 100% 30.17 in 7.0 mi Calm Calm - N/A   Overcast
8:15 AM 53.6 °F 53.6 °F 100% 30.17 in 10.0 mi Calm Calm - N/A   Overcast
8:35 AM 53.6 °F 53.6 °F 100% 30.18 in 1.8 mi Calm Calm - N/A   Overcast
8:55 AM 53.8 °F 53.8 °F 100% 30.19 in 1.5 mi Calm Calm - N/A   Overcast
9:15 AM 54.5 °F 54.5 °F 100% 30.19 in 10.0 mi SE 3.5 mph - N/A   Overcast
9:35 AM 54.9 °F 54.1 °F 97% 30.19 in 10.0 mi SE 3.5 mph - N/A   Overcast
9:55 AM 55.2 °F 54.5 °F 97% 30.18 in 10.0 mi ESE 3.5 mph - N/A   Overcast
10:15 AM 55.4 °F 54.7 °F 97% 30.17 in 10.0 mi ESE 3.5 mph - N/A   Overcast
10:35 AM 55.8 °F 54.5 °F 96% 30.18 in 10.0 mi ESE 4.6 mph - N/A   Overcast
10:55 AM 56.7 °F 55.2 °F 95% 30.17 in 10.0 mi SE 3.5 mph - N/A   Overcast
11:15 AM 56.8 °F 54.9 °F 93% 30.17 in 10.0 mi SE 5.8 mph - N/A   Overcast
11:35 AM 56.7 °F 55.2 °F 95% 30.17 in 10.0 mi SE 4.6 mph - N/A   Overcast
11:55 AM 57.6 °F 55.8 °F 94% 30.18 in 10.0 mi ESE 3.5 mph - N/A   Overcast
12:15 PM 57.0 °F 55.4 °F 94% 30.17 in 10.0 mi SE 3.5 mph - N/A   Overcast
12:35 PM 57.2 °F 55.6 °F 94% 30.17 in 10.0 mi SE 3.5 mph - N/A   Overcast
12:55 PM 57.0 °F 55.0 °F 93% 30.15 in 10.0 mi SE 4.6 mph - N/A   Overcast
1:15 PM 56.7 °F 54.5 °F 92% 30.14 in 10.0 mi SE 6.9 mph - N/A   Overcast
1:35 PM 56.8 °F 54.7 °F 92% 30.13 in 10.0 mi SE 3.5 mph - N/A   Overcast
1:55 PM 58.5 °F 55.8 °F 91% 30.12 in 10.0 mi SE 4.6 mph - N/A   Overcast
2:15 PM 57.7 °F 54.9 °F 90% 30.12 in 10.0 mi SE 3.5 mph - N/A   Overcast
2:35 PM 57.2 °F 55.2 °F 93% 30.10 in 10.0 mi Calm Calm - N/A   Overcast
2:55 PM 57.6 °F 55.4 °F 92% 30.09 in 10.0 mi SE 3.5 mph - N/A   Overcast
3:15 PM 57.7 °F 55.6 °F 92% 30.08 in 10.0 mi SE 3.5 mph - N/A   Overcast
3:35 PM 58.1 °F 55.4 °F 91% 30.08 in 10.0 mi ESE 5.8 mph - N/A   Overcast
3:55 PM 57.7 °F 55.4 °F 92% 30.07 in 10.0 mi SE 6.9 mph - N/A   Overcast
4:15 PM 58.1 °F 55.2 °F 90% 30.06 in 10.0 mi SE 5.8 mph - N/A   Overcast
4:35 PM 56.7 °F 55.8 °F 97% 30.06 in 2.5 mi ESE 5.8 mph - N/A   Drizzle
4:55 PM 56.1 °F 56.1 °F 100% 30.06 in 2.5 mi SE 4.6 mph - N/A   Drizzle
5:15 PM 56.3 °F 56.3 °F 100% 30.06 in 10.0 mi SE 3.5 mph - N/A   Overcast
5:55 PM 56.5 °F 56.5 °F 100% 30.04 in 7.0 mi ESE 6.9 mph - N/A   Overcast
6:35 PM 56.7 °F 56.7 °F 100% 30.04 in 5.0 mi SE 5.8 mph - 0.01 in Rain Light Rain
6:55 PM 56.7 °F 56.7 °F 100% 30.04 in 4.0 mi ESE 8.1 mph - 0.03 in Rain Heavy Rain
7:15 PM 56.7 °F 56.7 °F 100% 30.04 in 4.0 mi SE 5.8 mph - 0.01 in Rain Rain
7:55 PM 56.7 °F 56.7 °F 100% 30.03 in 7.0 mi SE 8.1 mph - 0.03 in   Drizzle
8:15 PM 56.8 °F 56.8 °F 100% 30.02 in 5.0 mi SE 6.9 mph 17.3 mph 0.01 in   Heavy Drizzle
8:35 PM 56.8 °F 56.8 °F 100% 30.01 in 3.0 mi SE 4.6 mph - 0.03 in Rain Rain
8:55 PM 56.7 °F 56.7 °F 100% 30.01 in 5.0 mi SSE 5.8 mph - 0.05 in Rain Heavy Rain
9:15 PM 56.7 °F 56.7 °F 100% 30.01 in 4.0 mi SE 5.8 mph - 0.03 in Rain Rain
9:35 PM 56.8 °F 56.8 °F 100% 30.00 in 3.0 mi SSE 4.6 mph - 0.05 in Rain Heavy Rain
9:55 PM 56.8 °F 56.8 °F 100% 30.01 in 2.5 mi SSE 4.6 mph - 0.10 in Rain Heavy Rain
10:15 PM 56.8 °F 56.8 °F 100% 30.00 in 1.8 mi Calm Calm - 0.02 in Rain Rain
10:35 PM 57.2 °F 57.2 °F 100% 29.99 in 3.0 mi SE 3.5 mph - 0.06 in Rain Rain
10:55 PM 57.6 °F 57.6 °F 100% 29.98 in 4.0 mi SSE 4.6 mph - 0.09 in Rain Rain
11:15 PM 58.1 °F 58.1 °F 100% 29.97 in 2.5 mi SE 5.8 mph - 0.03 in Rain Rain
11:35 PM 58.3 °F 58.3 °F 100% 29.97 in 2.5 mi SSE 6.9 mph - 0.08 in Rain Rain
11:55 PM 58.3 °F 58.3 °F 100% 29.96 in 1.2 mi SE 3.5 mph - 0.11 in Rain Rain